Погода в Нежине

Украина / Черниговская область     51°02′47″N   31°52′48″E
темп.,
°C
ветер,
м/с
пор.,
м/с
влажн.,
%
обл.,
%
осадки,
мм/ч
давл.,
гПа
погр.,
м
24 мая, вт
вт2400:00+8сз33725 0.0 101127
03:00+6ссз33845 0.0 101235
06:00+6ссз35750 0.0 1012109
09:00+12сз45630 0.0 1012466
12:00+16ссз56465 0.0 10121868
15:00+16с465897 0.0 10131351
18:00+15сз356460 0.6 10131114
21:00+11зсз227410 0.6 101411
25 мая, ср
ср2500:00+9сз33821 0.0 101630
03:00+8зсз338312 0.0 101739
06:00+8з348492 0.0 101775
09:00+13зсз3671100 0.0 1018269
12:00+18зсз4553100 0.0 10181029
15:00+20зсз2441100 0.0 10172330
18:00+18юз365986 0.0 1017326
21:00+13ююз46707 0.0 101770
26 мая, чт
чт2600:00+12ю4668100 0.0 101673
03:00+12ю3975100 0.1 1015273
06:00+12ююв71590100 1.9 1012490
09:00+11ююз71295100 8.3 1010562
12:00+13зсз81292100 0.6 1011878
15:00+17зсз914652 0.8 10111822
18:00+17зсз7116948 0.1 10121065
21:00+13з410845 0.4 1013188
27 мая, пт
пт2700:00+11зюз5138458 0.0 1012295
03:00+12з614835 0.0 1012479
06:00+12з6138944 0.0 1013496
09:00+15зсз712665 0.0 10131173
12:00+18з7105594 0.0 10131874
15:00+19зюз61057100 0.0 10121758
18:00+19юз596838 0.0 1010924
21:00+16юз715725 0.0 1008492
28 мая, сб
сб2800:00+15зюз51288100 0.5 1007491
03:00+10з51295100 3.8 1008854
06:00+10з5109492 1.8 1009587
09:00+11з6881100 1.8 1010927
12:00+13зюз686963 0.0 10101188
15:00+17юз7115084 0.1 10092694
18:00+15зюз61068100 0.4 10101262
21:00+11зюз4979100 0.8 1012208